DECAYED

CZ-6A DEB, 55185 (Decayed)

Orbit data source: Space-Track

CZ-6A DEB, 55185 was space debris in SSO originally from a launch on Fri, 11 Nov 2022 UTC launched from the Taiyaun Space Center, China (TSC). Debris objects in space refer to the collection of defunct objects orbiting the Earth. Examples of debris include non-operational satellites, rocket bodies, and fragments generated from explosions, collisions, or faulty payload assembly.

Not visible in the next 10 days
Identifier
55185, 2022-151VA
Orbit
Decayed
Country
Flag of CNCN / PRC
Related business
Manufacturer
SAST
Mission
Decayed spacecraft
Bus & Motor
Unknown
Mass
Unknown
Launch date (UTC)
2022-11-11 (4 years ago)
Launch vehicle
Unknown
Launch site
Taiyaun Space Center, China (TSC)
Object type
Payload
Rocket body
Debris
Shape & HBR
Unknown shape, 0.1 m
Radar Cross Section
Small (<0.1 m²)

Expand to show TLE details & history
Last TLE update: 1 year ago

TLE from 1 year ago
0 CZ-6A DEB
1 55185U 22151VA  25168.14532356  .02761084  49111-2  12172-1 0  9996
2 55185  98.6221 241.9726 0026668 260.3198  99.5056 15.85135915132285
Epoch: 2025-06-17T03:29Z
TLE epoch observation values (Epoch: 2025-06-17T03:29:15.955Z)
Latitude
-0.00001°
Longitude
-75.98979°
Altitude
322.077 km
Speed
7.713 km/s
True Right ascension
16h 07m 53s
True Declination
0° 00' 00"
Sunlit
Object was in full shadow at epoch
Visualization orbit readout
Latitude
Unknown
Longitude
Unknown
Altitude
Unknown
Speed
Unknown
Apparent Right ascension
Unknown
Apparent Declination
Unknown
Sunlit
N/A
Visualization observer readout
Local Sidereal Time
21:29:28
Azimuth
Unknown
Elevation
Unknown
Doppler factor
Unknown
Orbital elements
Apogee altitude
330.723 km
Perigee altitude
295.036 km
Semi-major axis
6,691.016 km
Eccentricity
0.00267
Inclination
98.6221°
RAAN
241.9726°
Arg. of periapsis
260.3198°
True anomaly
99.80683°
Mean anomaly
99.5056°
Eccentric anomaly
99.65623°
Mean motion
3.96556 °/min
Orbital period
90.78 mins
BSTAR
0.012172
Loading maneuver chart data...
Computing Atmospheric mass density...
Loading historical data...
Loading historical data...
Loading historical data...
Loading historical data...
Loading historical data...
Loading historical data...
Loading historical data...

Documentation

Showing up to 5 results
|